Reflectivity
-20 -20 -20 -20 -20 -20 -20 -20 -20 -20 -20 -20 -20 -20 -20 -20 -20 -20 -20 -20 -20 -20 -20 -20 -20 -20 -20 -20 -20 -20 -20 -20 -20 -20 -20 -20 -20 -20 -20 -20 -20 -20 -20 -20
-20 -20 -20 -20 -20 -20 -20 -20 -20 -20 -20 -20 -20 -20 -20 -20 -20 -20 -20 -20 -20 -20 -20 -20 -20 -20 -20 -20 -20 -20 -20 -20 -20 -20 -20 -20 -20 -20 -20 -20 -20 -20 -20 -20
-20 -20 -20 -20 -20 -20 -20 -20 -20 -20 -20 -20 -20 -20 -20 -20 -20 -20 -20 -20 -20 -20 -20 -20 -20 -20 -20 -20 -20 -20 -20 -20 -20 -20 -20 -20 -20 -20 -20 -20 -20 -20 -20 -20
-20 -20 -20 -20 -20 -20 -20 -20 -20 -20 -20 -20 -20 -20 -20 -20 -20 -20 -20 -20 -20 -20 -20 -20 -20 -20 -20 -20 -20 -20 -20 -20 -20 -20 -20 -20 -20 -20 -20 -20 -20 -20 -20 -20
-20 -20 -20 -20 -20 -20 -20 -20 -20 -20 -20 -20 -20 -20 -20 -20 -20 -20 -20 -20 -20 -20 -20 -20 -20 -20 -20 -20 -20 -20 -20 -20 -20 -10 -13 1 -6 -19 -20 -20 -20 -20 -20 -20
-20 -20 -20 -20 -20 -20 -20 -20 -20 -20 -20 -20 -20 -20 -20 -20 -20 -20 -20 -20 -20 -20 -20 -20 -20 -20 -20 -20 -20 -20 -20 -20 -20 -20 3 27 23 11 -5 -17 -20 -20 -4 -20
-20 -20 -20 -20 -20 -20 -20 -20 -20 -20 -20 -20 -20 -20 -20 -20 -20 -20 -20 -20 -20 -20 -20 -20 -20 -20 -20 -20 -20 -20 -20 -20 -4 -19 14 -1 -13 11 -19 -1 -17 -20 -10 -19
-20 -20 -20 -20 -20 -20 -20 -20 -20 -20 -20 -20 -20 -20 -20 -20 -20 -20 -20 -20 -20 -20 -20 -20 -20 -20 -20 -20 -20 -20 -20 -20 -20 -20 -1 -1 -16 -20 -19 -11 -20 -20 -20 -20
-20 -20 -20 -20 -20 -20 -20 -20 -20 -20 -20 -20 -20 -20 -20 -20 -20 -20 -20 -20 -20 -20 -20 -20 -20 -20 -20 -20 -20 -20 -20 -20 -20 -20 -20 -19 -11 -20 -19 -20 -20 -20 -3 19
-20 -20 -20 -20 -20 -20 -20 -20 -20 -20 -20 -20 -20 -20 -20 -20 -20 -20 -20 -20 -20 -20 -20 -20 -20 -20 -20 -20 -20 -20 -20 -20 -20 -20 -3 -16 -6 1 6 13 10 -20 -20 13
-20 -20 -20 -20 -20 -20 -20 -20 -20 -20 -20 -20 -20 -20 -20 -20 -20 -20 -20 -20 -20 -20 -20 -20 -20 -20 -20 -20 -20 -20 -20 -20 -20 -20 -13 -5 7 4 2 1 2 -14 -20 -20
-20 -20 -20 -20 -20 -20 -20 -20 -20 -20 -20 -20 -20 -20 -20 -20 -20 -20 -20 -20 -20 -20 -20 -20 -20 -20 -20 -20 -20 -20 -20 -20 -20 -20 11 -3 -20 -8 -4 -20 -20 -20 -20 -20
-20 -20 -20 -20 -20 -20 -20 -20 -20 -20 -20 -20 -20 -20 -20 -20 -20 -20 -20 -20 -20 -20 -20 -20 -20 -20 -20 -20 -20 -20 -20 -20 -20 -20 -20 -14 -17 4 -20 -18 -20 -20 -20 -20
-20 -20 -20 -20 -20 -20 -20 -20 -20 -20 -20 -20 -20 -20 -20 -20 -20 -20 -20 -20 -20 -20 -20 -20 -20 -20 -20 -20 -20 -20 -20 -20 -20 -20 -20 -20 -20 -20 -5 -14 -20 -20 -20 -20
-20 -20 -20 -20 -20 -20 -20 -20 -20 -20 -20 -20 -20 -20 -20 -20 -20 -20 -20 -20 -20 -20 -20 -20 -20 -20 -20 -20 -20 -20 -20 -20 -20 -20 -20 -20 -20 -20 -20 -20 -20 -20 -20 -20
-20 -20 -20 -20 -20 -20 -20 -20 -20 -20 -20 -20 -20 -20 -20 -20 -20 -20 -20 -20 -20 -20 -20 -20 -20 -20 -20 -20 -20 -20 -20 -20 -20 -20 -20 -20 -20 -20 -20 -20 -20 -20 -20 -20
-20 -20 -20 -20 -20 -20 -20 -20 -20 -20 -20 -20 -20 -20 -20 -20 -20 -20 -20 -20 -20 -20 -20 -20 -20 -20 -20 -20 -20 -20 -20 -20 -20 -20 -20 -20 -20 -20 -20 -20 -20 -20 -20 -20
-20 -20 -20 -20 -20 -20 -20 -20 -20 -20 -20 -20 -20 -20 -20 -20 -20 -20 -20 -20 -20 -20 -20 -20 -20 -20 -20 -20 -20 -20 -20 -20 -20 -20 -20 -20 -20 -20 -20 -20 -20 -20 -20 -20
-20 -20 -20 -20 -20 -20 -20 -20 -20 -20 -20 -20 -20 -20 -20 -20 -20 -20 -20 -20 -20 -20 -20 -20 -20 -20 -20 -20 -20 -20 -20 -20 -20 -20 -20 -20 -20 -20 -20 -20 -20 -20 -20 -20
-20 -20 -20 -20 -20 -20 -20 -20 -20 -20 -20 -20 -20 -20 -20 -20 -20 -20 -20 -20 -20 -20 -20 -20 -20 -20 -20 -20 -20 -20 -20 -20 -20 -20 -20 -20 -20 -20 -20 -20 -20 -20 -20 -20
-20 -20 -20 -20 -20 -20 -20 -20 -20 -20 -20 -20 -20 -20 -20 -20 -20 -20 -20 -20 -20 -20 -20 -20 -20 -20 -20 -20 -20 -20 -20 -20 -20 -20 -20 -20 -20 -20 -20 -20 -20 -20 -20 -20
-20 -20 -20 -20 -20 -20 -20 -20 -20 -20 -20 -20 -20 -20 -20 -20 -20 -20 -20 -20 -20 -20 -20 -20 -20 -20 -20 -20 -20 -20 -20 -20 -20 -20 -20 -20 -20 -20 -20 -20 -20 -20 -20 -20
-20 -20 -20 -20 -20 -20 -20 -20 -18 -20 -20 -20 -20 -20 -20 -20 -20 -20 -20 -20 -20 -20 -20 -20 -20 -20 -20 -20 -20 -20 -20 -20 -20 -20 -20 -20 -20 -20 -20 -20 -20 -20 -20 -20
-19 8 20 18 5 18 12 -20 -20 -20 -20 -20 -20 -20 -20 -20 -20 -20 -20 -20 -20 -20 -20 -20 -20 -20 -20 -20 -20 -20 -20 -20 -20 -20 -20 -20 -20 -20 -20 -20 -20 -20 -20 -20
-15 -0 -4 -17 -20 -20 -20 -20 -20 -20 -20 -20 -20 -20 -20 -20 -20 -20 -20 -20 -20 -20 -20 -20 -20 -20 -20 -20 -20 -20 -20 -20 -20 -20 -20 -20 -20 -20 -20 -20 -20 -20 -20 -20
-2 -5 -20 -20 -20 -20 -20 -16 -18 -20 -20 -20 -20 -20 -20 -20 -20 -20 -20 -20 -20 -20 -20 -20 -20 -20 -20 -20 -20 -20 -20 -20 -20 -20 -20 -20 -20 -20 -20 -20 -20 -20 -20 -20
Wind_Speed
5 10 2 1 2 3 3 1 4 6 3 7 5 16 20 16 7 5 3 3 6 6 5 5 6 7 9 8 10 11 14 14 10 7 5 4 4 4 4 4 6 6 5 9
7 4 2 1 1 2 0 3 6 7 3 4 7 19 16 8 2 4 3 4 6 6 6 7 6 6 6 8 11 13 13 12 11 8 6 4 5 5 5 4 5 6 5 4
6 2 1 2 3 2 2 2 3 6 8 3 8 8 3 0 1 3 5 3 4 6 7 6 7 7 6 6 7 12 14 15 12 12 8 6 6 4 3 2 3 4 6 5
3 0 1 2 2 1 3 2 3 5 5 4 4 6 5 4 6 8 8 5 6 6 7 6 8 8 6 7 8 11 14 14 13 11 9 8 7 7 3 3 3 4 6 6
3 3 1 1 1 1 5 2 4 2 0 4 1 4 9 3 7 9 7 7 6 7 7 8 8 7 7 7 8 10 12 12 13 10 9 8 8 5 5 4 5 1 1 4
2 1 2 3 2 3 4 3 2 1 2 3 5 5 8 4 7 4 4 6 7 7 7 7 6 6 5 6 7 10 11 11 11 11 11 10 9 7 4 4 3 3 5 6
5 2 1 1 2 3 6 6 4 6 6 5 3 3 12 7 7 7 8 8 6 7 7 7 7 6 5 7 7 8 10 12 12 11 12 10 8 3 3 3 3 3 3 3
3 6 5 4 4 5 2 5 5 4 3 6 2 7 9 4 6 7 7 8 7 7 7 7 6 5 5 6 7 6 8 10 10 10 10 10 10 4 4 5 5 5 6 4
2 5 1 4 3 5 0 2 3 3 3 3 4 9 10 4 8 7 9 7 9 8 7 8 6 6 5 5 6 6 7 6 8 9 8 9 9 8 6 7 7 5 5 4
1 4 3 1 2 1 3 3 2 3 2 6 7 7 9 5 6 4 6 8 9 7 7 7 6 6 5 6 5 5 5 6 6 6 6 7 8 8 8 7 7 7 6 8
1 4 6 2 5 7 3 2 2 2 5 4 5 10 8 8 5 6 7 7 9 8 8 7 7 6 6 5 5 5 3 3 5 6 6 6 6 6 5 4 5 6 4 4
2 3 5 10 3 5 4 7 6 5 4 3 3 13 4 8 7 5 8 8 7 7 7 7 7 7 6 5 4 2 2 3 3 2 5 4 5 4 5 5 6 5 5 4
4 1 5 7 6 3 5 5 4 4 3 7 5 11 2 4 6 7 8 9 9 8 7 7 7 7 7 6 5 4 2 0 2 4 4 5 6 6 6 7 6 6 5 6
3 3 7 8 6 3 5 5 6 6 5 5 14 16 23 14 12 11 9 10 10 9 10 8 7 8 7 7 6 5 3 1 1 3 4 4 4 4 4 5 5 6 5 5
4 5 4 8 14 13 17 17 15 13 10 10 4 13 26 12 10 10 9 9 9 9 9 10 9 8 8 7 7 6 5 5 4 4 3 2 2 2 3 4 4 4 5 4
2 4 2 6 10 7 15 17 19 21 22 24 27 32 29 26 19 12 12 9 9 10 10 11 11 9 10 9 8 7 7 6 5 4 4 3 3 2 2 2 2 3 3 3
5 3 4 7 7 11 12 9 14 6 6 17 18 25 14 15 9 9 10 8 10 11 10 9 12 11 10 10 9 9 7 6 6 6 5 5 4 2 1 1 2 2 2 2
6 5 3 6 7 4 7 6 7 11 10 18 12 18 14 10 6 8 7 9 10 9 9 8 8 7 9 7 8 7 7 7 6 6 6 5 4 3 1 1 2 2 1 2
6 5 3 4 3 12 9 1 6 7 11 12 21 20 19 4 6 17 8 7 6 6 7 8 7 7 7 9 9 8 7 7 6 6 6 5 4 3 1 0 1 1 1 2
5 4 6 2 4 8 6 2 3 4 8 4 9 14 8 5 3 8 3 4 6 7 6 7 6 4 7 8 9 9 8 8 8 7 6 5 5 4 3 2 2 1 0 1
4 3 13 8 5 12 13 9 2 1 9 2 5 8 5 6 11 3 1 5 4 6 8 7 5 8 9 8 9 9 7 9 7 6 6 6 6 6 5 4 2 1 1 2
9 7 5 6 7 14 9 4 9 8 2 3 3 5 7 10 9 8 9 8 8 9 8 7 6 7 6 9 10 8 10 7 7 7 7 7 6 4 4 5 2 2 1 1
4 9 8 14 13 6 7 7 10 2 4 7 5 8 9 9 8 10 9 8 8 8 7 5 7 7 6 8 10 11 10 9 9 9 8 7 6 5 5 5 4 2 2 2
6 8 7 2 12 22 21 18 14 12 10 15 14 15 10 12 10 11 9 8 7 6 7 6 6 8 8 8 11 12 8 9 10 9 7 6 5 5 5 3 3 3 3 3
8 6 9 10 22 23 24 25 22 17 11 12 12 11 11 10 14 13 14 10 8 7 6 5 8 8 11 8 11 9 8 9 8 6 6 6 5 6 5 4 4 4 4 5
14 25 13 15 23 15 16 19 15 9 19 18 10 11 16 12 15 11 11 9 7 8 6 6 8 8 10 9 10 9 9 11 10 8 6 6 5 4 4 4 3 4 4 2
Wind_Direction
24 66 93 206 42 134 125 185 263 255 254 338 262 280 291 295 290 168 203 304 311 305 297 312 357 348 339 336 337 335 327 326 325 326 328 309 267 267 262 243 247 253 235 234
30 80 229 277 21 53 323 319 301 291 307 317 305 295 286 286 319 180 213 284 316 318 321 330 331 329 324 326 334 329 322 320 315 308 301 272 287 262 242 235 248 236 222 241
113 144 173 13 349 347 285 213 277 252 314 294 327 293 309 224 159 223 239 256 282 285 291 300 293 285 295 304 307 320 317 317 306 297 293 296 295 273 279 306 277 255 213 208
68 338 21 356 286 27 288 202 279 293 6 290 61 289 302 281 258 233 243 261 273 282 294 291 293 300 296 310 318 322 320 307 302 301 289 277 277 283 264 241 244 272 220 189
249 169 196 308 248 57 248 287 263 252 111 342 314 73 268 358 291 265 256 267 276 265 266 284 298 296 303 311 314 313 314 310 311 314 309 296 279 265 268 275 280 246 58 98
281 22 170 230 294 238 310 349 359 70 39 23 250 116 282 210 219 276 257 259 263 274 280 285 294 300 311 309 308 314 324 326 335 332 324 320 278 268 278 301 300 230 120 73
337 250 239 181 328 333 39 46 342 355 6 222 273 46 246 263 249 238 260 272 260 261 269 280 293 292 325 312 316 326 339 344 347 346 341 338 333 332 93 56 18 62 95 82
90 331 189 172 195 188 36 108 140 234 309 284 346 240 256 218 285 256 259 264 274 267 268 273 266 277 307 308 310 328 340 349 353 349 351 353 354 4 48 55 67 73 77 46
55 275 164 187 169 127 134 23 170 90 299 336 250 282 298 261 272 261 261 270 270 262 261 256 252 251 275 289 304 331 337 352 0 2 359 8 5 6 31 57 66 64 73 90
200 320 239 359 98 318 153 162 51 7 12 296 287 278 241 299 283 300 287 262 268 265 255 244 246 249 259 259 273 304 335 348 354 7 18 14 17 26 29 38 55 55 49 46
138 118 290 108 198 181 133 263 197 142 155 193 301 268 216 219 234 272 280 264 260 260 251 236 237 243 250 274 280 289 292 3 0 1 8 23 22 27 47 52 62 79 77 84
199 149 270 231 271 212 190 191 160 131 230 225 173 270 246 235 255 241 268 273 265 254 247 222 227 226 233 236 235 232 358 6 332 7 350 4 17 16 37 37 36 40 55 73
168 257 322 345 357 337 223 205 181 105 74 209 155 260 255 277 265 268 257 271 267 255 234 224 225 225 228 224 221 209 194 127 40 39 33 39 30 24 29 32 34 34 35 40
128 196 193 204 212 163 233 222 195 165 170 198 229 271 263 267 268 285 278 265 268 248 217 211 220 226 222 216 209 204 216 204 126 88 68 57 43 37 34 32 32 28 22 31
146 237 216 258 266 258 255 248 232 215 209 211 277 239 264 272 255 251 265 282 282 271 221 213 215 217 217 216 211 198 199 195 182 153 138 136 113 88 65 52 41 35 36 19
184 266 323 265 269 266 267 250 238 235 236 249 257 273 271 279 280 277 270 270 272 262 237 219 216 204 210 207 203 196 199 198 183 183 189 176 146 134 125 102 84 79 60 37
175 194 10 274 322 314 289 260 213 185 208 218 232 241 271 277 268 256 265 252 261 264 249 229 218 210 208 200 191 200 192 183 187 190 191 181 172 154 110 73 67 46 34 28
161 145 165 278 343 314 243 291 182 204 231 216 251 258 242 246 256 269 253 261 278 284 274 252 229 211 209 183 187 179 175 186 189 198 199 195 179 160 137 78 48 2 23 12
171 135 271 253 237 289 294 30 131 172 280 223 225 254 264 281 321 289 223 214 241 266 276 256 238 219 179 182 180 169 174 182 190 205 204 198 181 190 187 353 331 306 8 346
120 149 183 150 220 249 245 185 164 138 287 302 196 238 256 126 305 266 215 212 274 288 279 276 257 219 179 188 169 166 181 181 199 200 202 191 196 201 210 221 237 236 311 306
130 180 214 225 265 279 260 248 34 104 239 307 185 251 178 191 211 224 170 270 253 257 285 289 202 200 205 160 162 182 178 205 200 185 184 189 193 195 203 207 202 215 283 338
174 160 199 182 234 265 183 76 173 226 255 230 228 237 234 239 279 261 255 262 273 279 282 260 234 225 185 164 170 187 203 190 179 179 183 189 191 201 188 193 217 220 225 311
253 199 186 192 215 242 206 236 240 260 260 281 259 259 242 248 246 251 255 258 262 259 268 250 226 226 201 186 189 195 206 173 174 177 190 190 195 191 189 184 200 201 180 176
242 187 229 87 244 248 255 257 260 266 257 275 268 267 274 258 258 260 257 254 246 244 243 229 227 225 225 199 203 213 173 174 175 183 181 185 185 199 185 184 183 176 186 205
232 172 215 259 264 271 273 266 272 280 264 265 267 252 248 246 260 250 261 250 244 243 242 208 213 221 232 206 210 201 179 166 177 173 174 188 186 196 190 195 186 193 215 191
227 246 242 243 264 260 276 285 290 274 290 285 255 274 270 245 253 251 252 240 235 247 245 230 229 224 227 201 206 194 178 173 169 177 181 190 185 194 184 175 203 228 184 146